Location: Brabourne
(51.1333°N, 1.0000°E)
Time: 05:45:24
(UTC+00:00)

NOSS 3-1 (A) - Pass Details

Date: 24 October 2021
Orbit: 721 x 1491 km, 63.4° (Epoch: 22 November)

Event Time Altitude Azimuth Distance (km) Brightness Sun altitude
Exits shadow 04:00:59 31° 215° (SW) 2,183 4.9 -24.7°
Drops below altitude 10° 04:06:28 10° 182° (S) 3,534 6.3 -23.8°
Sets 04:09:50 0° 174° (S) 4,563 6.9 -23.3°
